Location: *
(45.9500°N, 9.0833°E)
Time: 14:46:49
(UTC+00:00)

Okean 3 - Pass Details

Date: 03 March 2021
Orbit: 576 x 600 km, 82.5° (Epoch: 19 April)

Event Time Altitude Azimuth Distance (km) Brightness Sun altitude
Rises 18:36:08 0° 359° (N) 2,832 7.0 -15.2°
Reaches altitude 10° 18:38:33 10° 10° (N) 1,931 6.1 -15.6°
Maximum altitude 18:42:22 31° 74° (ENE) 1,049 4.2 -16.3°
Enters shadow 18:42:46 31° 85° (E) 1,063 4.2 -16.3°
